Location: Heidgraben
(53.7081°N, 9.6576°E)
Time: 04:27:59
(UTC+00:00)

Cosmos 1151 Rocket - Pass Details

Date: 05 July 2020
Orbit: 591 x 617 km, 82.5° (Epoch: 06 August)

Event Time Altitude Azimuth Distance (km) Brightness Sun altitude
Rises 21:53:27 0° 354° (N) 2,887 8.2 -11.0°
Reaches altitude 10° 21:55:53 10° 4° (N) 1,974 6.8 -11.2°
Maximum altitude 21:59:49 32° 69° (ENE) 1,046 4.2 -11.4°
Enters shadow 22:03:13 13° 130° (SE) 1,774 4.9 -11.5°
